Location: *
(46.1006°N, 1.8394°E)
Time: 01:18:10
(UTC+00:00)

ERS-1 Rocket - Pass Details

Date: 20 September 2019
Orbit: 754 x 757 km, 98.5° (Epoch: 20 October)

Event Time Altitude Azimuth Distance (km) Brightness Sun altitude
Exits shadow 20:40:43 31° 28° (NNE) 1,299 4.2 -27.8°
Drops below altitude 10° 20:43:51 10° 360° (N) 2,293 5.9 -28.3°
Sets 20:46:16 0° 353° (N) 3,223 6.8 -28.6°
